Weather History for KMLE - October, 2011

Change the Weather History Date:

Tuesday, October 18, 2011

  Actual Average (KOMA) Record (KOMA)
Temperature  
Mean Temperature 47 °F 52 °F  
Max Temperature 53 °F 64 °F 86 °F (1950)
Min Temperature 41 °F 41 °F 20 °F (1972)
Degree Days  
Heating Degree Days 18 13  
Month to date heating degree days 180  
Since 1 July heating degree days 283  
Cooling Degree Days 0 0  
Month to date cooling degree days 12  
Year to date cooling degree days 1109  
Moisture  
Dew Point 29 °F    
Average Humidity 51    
Maximum Humidity 70    
Minimum Humidity 22    
Precipitation  
Precipitation 0.00 in 0.07 in 1.10 in (1877)
Month to date precipitation 1.31  
Year to date precipitation 27.10  
Snow  
Snow 0.00 in 0.00 in - ()
Month to date snowfall 0.1  
Since 1 July snowfall 0.1  
Snow Depth -    
Sea Level Pressure  
Sea Level Pressure 30.05 in    
Wind  
Wind Speed 10 mph (NNW)    
Max Wind Speed 17 mph    
Max Gust Speed 30 mph    
Visibility 10 miles    
Events      
T = Trace of Precipitation, MM = Missing Value Source: NWS Daily Summary

Daily Weather History Graph

Daily Weather History Graph

Search for Another Location

Airport or City:

Trip Planner

Search our weather history database for the weather conditions in past years. The results will help you decide how hot, cold, wet, or windy it might be!

Date:

Astronomy

Oct. 18, 2011 Rise Set
Actual Time 7:39 AM CDT 6:39 PM CDT
Civil Twilight 7:11 AM CDT 7:07 PM CDT
Nautical Twilight 6:39 AM CDT 7:39 PM CDT
Astronomical Twilight 6:07 AM CDT 8:11 PM CDT
Moon 11:19 PM CDT (10/18) 1:32 PM CDT (10/18)
Length of Visible Light 11h 56m
Length of Day
11h 00m
Waning Gibbous, 64% of the Moon is Illuminated
Oct 18
Waning Gibbous
Oct 19
Last Quarter
Oct 26
New
Nov 2
First Quarter
Nov 10
Full

Hourly Weather History & Observations

Time (CDT) Temp. Windchill Dew Point Humidity Pressure Visibility Wind Dir Wind Speed Gust Speed Precip Events Conditions
12:15 AM 50.0 °F - 37.4 °F 62% 30.02 in 10.0 mi NW 9.2 mph - N/A   Overcast
12:35 AM 50.0 °F - 37.4 °F 62% 30.01 in 10.0 mi WNW 12.7 mph - N/A   Overcast
1:15 AM 50.0 °F - 37.4 °F 62% 29.99 in 10.0 mi WNW 11.5 mph - N/A   Scattered Clouds
1:35 AM 50.0 °F - 37.4 °F 62% 29.99 in 10.0 mi NW 10.4 mph - N/A   Mostly Cloudy
1:55 AM 50.0 °F - 35.6 °F 58% 29.99 in 10.0 mi NW 9.2 mph - N/A   Mostly Cloudy
2:15 AM 50.0 °F - 35.6 °F 58% 30.00 in 10.0 mi NW 9.2 mph - N/A   Scattered Clouds
2:35 AM 50.0 °F - 35.6 °F 58% 30.00 in 10.0 mi NW 8.1 mph - N/A   Clear
2:55 AM 50.0 °F - 35.6 °F 58% 30.01 in 10.0 mi NW 5.8 mph - N/A   Clear
3:35 AM 48.2 °F - 35.6 °F 62% 30.02 in 10.0 mi NW 5.8 mph - N/A   Clear
3:55 AM 48.2 °F - 35.6 °F 62% 30.03 in 10.0 mi NW 5.8 mph - N/A   Clear
4:15 AM 46.4 °F 43.5 °F 35.6 °F 66% 30.02 in 10.0 mi NW 5.8 mph - N/A   Clear
4:35 AM 46.4 °F 42.9 °F 35.6 °F 66% 30.02 in 10.0 mi NW 6.9 mph - N/A   Clear
4:55 AM 44.6 °F 40.7 °F 33.8 °F 66% 30.02 in 10.0 mi NW 6.9 mph - N/A   Clear
5:15 AM 44.6 °F 40.7 °F 33.8 °F 66% 30.03 in 10.0 mi NW 6.9 mph - N/A   Clear
5:35 AM 44.6 °F 40.7 °F 33.8 °F 66% 30.03 in 10.0 mi NW 6.9 mph - N/A   Clear
5:55 AM 42.8 °F 37.5 °F 33.8 °F 70% 30.03 in 10.0 mi NW 9.2 mph - N/A   Clear
6:15 AM 42.8 °F 38.6 °F 33.8 °F 70% 30.03 in 10.0 mi NW 6.9 mph - N/A   Clear
6:35 AM 42.8 °F 37.5 °F 32.0 °F 66% 30.03 in 10.0 mi NW 9.2 mph - N/A   Clear
7:15 AM 41.0 °F 35.2 °F 32.0 °F 70% 30.04 in 10.0 mi NW 9.2 mph - N/A   Clear
7:35 AM 41.0 °F 35.2 °F 32.0 °F 70% 30.05 in 10.0 mi NW 9.2 mph - N/A   Clear
7:55 AM 41.0 °F 35.2 °F 32.0 °F 70% 30.05 in 10.0 mi NW 9.2 mph - N/A   Clear
8:15 AM 41.0 °F 34.7 °F 32.0 °F 70% 30.05 in 10.0 mi NNW 10.4 mph - N/A   Clear
8:35 AM 41.0 °F 34.3 °F 30.2 °F 65% 30.06 in 10.0 mi NNW 11.5 mph - N/A   Clear
8:55 AM 41.0 °F 33.1 °F 30.2 °F 65% 30.07 in 10.0 mi NNW 15.0 mph - N/A   Clear
9:15 AM 42.8 °F 37.0 °F 32.0 °F 66% 30.08 in 10.0 mi NNW 10.4 mph 19.6 mph N/A   Clear
9:35 AM 42.8 °F 36.2 °F 32.0 °F 66% 30.08 in 10.0 mi NNW 12.7 mph 18.4 mph N/A   Clear
9:55 AM 42.8 °F 36.6 °F 32.0 °F 66% 30.09 in 10.0 mi NNW 11.5 mph 17.3 mph N/A   Clear
10:15 AM 44.6 °F 37.8 °F 32.0 °F 61% 30.09 in 10.0 mi NNW 15.0 mph 18.4 mph N/A   Clear
10:35 AM 44.6 °F 37.2 °F 32.0 °F 61% 30.09 in 10.0 mi North 17.3 mph - N/A   Clear
10:55 AM 46.4 °F 40.4 °F 32.0 °F 57% 30.10 in 10.0 mi North 13.8 mph 24.2 mph N/A   Scattered Clouds
11:15 AM 46.4 °F 40.4 °F 30.2 °F 53% 30.10 in 10.0 mi NNW 13.8 mph 24.2 mph N/A   Scattered Clouds
11:55 AM 46.4 °F 41.1 °F 30.2 °F 53% 30.10 in 10.0 mi NNW 11.5 mph 21.9 mph N/A   Overcast
12:15 PM 46.4 °F 41.1 °F 30.2 °F 53% 30.09 in 10.0 mi North 11.5 mph 24.2 mph N/A   Overcast
12:35 PM 48.2 °F - 30.2 °F 50% 30.09 in 10.0 mi North 10.4 mph 25.3 mph N/A   Overcast
12:55 PM 50.0 °F - 30.2 °F 47% 30.08 in 10.0 mi North 13.8 mph 23.0 mph N/A   Mostly Cloudy
1:15 PM 50.0 °F - 30.2 °F 47% 30.07 in 10.0 mi North 12.7 mph 23.0 mph N/A   Mostly Cloudy
1:35 PM 51.8 °F - 30.2 °F 44% 30.06 in 10.0 mi NNW 9.2 mph 23.0 mph N/A   Mostly Cloudy
1:55 PM 51.8 °F - 30.2 °F 44% 30.06 in 10.0 mi NNW 8.1 mph 25.3 mph N/A   Overcast
2:15 PM 51.8 °F - 32.0 °F 47% 30.06 in 10.0 mi North 11.5 mph 24.2 mph N/A   Mostly Cloudy
2:35 PM 51.8 °F - 32.0 °F 47% 30.06 in 10.0 mi NNW 13.8 mph 25.3 mph N/A   Scattered Clouds
2:55 PM 53.6 °F - 32.0 °F 44% 30.06 in 10.0 mi NW 17.3 mph 26.5 mph N/A   Mostly Cloudy
3:15 PM 53.6 °F - 28.4 °F 38% 30.06 in 10.0 mi NNW 11.5 mph 23.0 mph N/A   Scattered Clouds
3:35 PM 53.6 °F - 26.6 °F 35% 30.05 in 10.0 mi NNW 17.3 mph 29.9 mph N/A   Scattered Clouds
3:55 PM 53.6 °F - 23.0 °F 30% 30.05 in 10.0 mi NNW 17.3 mph 25.3 mph N/A   Clear
4:15 PM 53.6 °F - 21.2 °F 28% 30.05 in 10.0 mi NNW 13.8 mph 26.5 mph N/A   Clear
4:35 PM 53.6 °F - 19.4 °F 26% 30.05 in 10.0 mi NNW 15.0 mph 25.3 mph N/A   Clear
4:55 PM 53.6 °F - 19.4 °F 26% 30.05 in 10.0 mi NNW 13.8 mph 24.2 mph N/A   Clear
5:15 PM 53.6 °F - 17.6 °F 24% 30.05 in 10.0 mi NNW 10.4 mph 23.0 mph N/A   Clear
5:35 PM 53.6 °F - 17.6 °F 24% 30.05 in 10.0 mi North 10.4 mph 16.1 mph N/A   Clear
5:55 PM 53.6 °F - 15.8 °F 22% 30.06 in 10.0 mi NNW 12.7 mph 21.9 mph N/A   Clear
6:15 PM 51.8 °F - 17.6 °F 26% 30.06 in 10.0 mi NNW 12.7 mph 20.7 mph N/A   Clear
6:35 PM 51.8 °F - 17.6 °F 26% 30.06 in 10.0 mi NNW 9.2 mph - N/A   Clear
6:55 PM 51.8 °F - 19.4 °F 28% 30.07 in 10.0 mi NNW 8.1 mph - N/A   Clear
7:15 PM 50.0 °F - 21.2 °F 32% 30.08 in 10.0 mi NNW 6.9 mph - N/A   Clear
7:35 PM 50.0 °F - 21.2 °F 32% 30.08 in 10.0 mi NNW 6.9 mph - N/A   Clear
7:55 PM 48.2 °F - 21.2 °F 34% 30.08 in 10.0 mi NW 5.8 mph - N/A   Clear
8:15 PM 46.4 °F 42.9 °F 23.0 °F 40% 30.08 in 10.0 mi NW 6.9 mph - N/A   Clear
8:35 PM 46.4 °F 42.4 °F 23.0 °F 40% 30.08 in 10.0 mi NNW 8.1 mph - N/A   Clear
8:55 PM 46.4 °F 42.4 °F 24.8 °F 43% 30.08 in 10.0 mi NW 8.1 mph - N/A   Clear
9:15 PM 44.6 °F 41.4 °F 24.8 °F 46% 30.08 in 10.0 mi NNW 5.8 mph - N/A   Clear
9:35 PM 46.4 °F 42.4 °F 24.8 °F 43% 30.08 in 10.0 mi NNW 8.1 mph - N/A   Clear
9:55 PM 46.4 °F 41.9 °F 24.8 °F 43% 30.08 in 10.0 mi NNW 9.2 mph - N/A   Clear
10:15 PM 44.6 °F 40.7 °F 24.8 °F 46% 30.08 in 10.0 mi NNW 6.9 mph - N/A   Clear
10:35 PM 44.6 °F 41.4 °F 24.8 °F 46% 30.08 in 10.0 mi North 5.8 mph - N/A   Clear
10:55 PM 44.6 °F 41.4 °F 24.8 °F 46% 30.08 in 10.0 mi NNW 5.8 mph - N/A   Clear
11:15 PM 44.6 °F 41.4 °F 24.8 °F 46% 30.08 in 10.0 mi North 5.8 mph - N/A   Clear
11:35 PM 42.8 °F 40.1 °F 26.6 °F 53% 30.08 in 10.0 mi North 4.6 mph - N/A   Clear
11:55 PM 42.8 °F 41.1 °F 24.8 °F 49% 30.08 in 10.0 mi North 3.5 mph - N/A   Clear